Weather in Zelenaya

Ukraine / Ivano-Frankovsk District     48°31′34″N   24°22′48″E
temp.,
°C
wind,
m/s
gust,
m/s
humid.,
%
clouds,
%
prec.,
mm/h
press.,
hPa
HPBL,
m
20 january, thu
thu2023:00−9sw569259 0.0 1024126
02:00−9sw589053 0.0 1021138
05:00−9sw698813 0.0 1017171
08:00−9sw58906 0.0 1016152
11:00−3wsw5167750 0.0 1014948
14:00−2sw51577100 0.0 1011978
17:00−4wsw5167997 0.1 1010956
20:00−3wsw6158458 0.5 1009920
21 january, fri
fri2123:00−8wsw38804 2.1 1014299
02:00−8w514752 2.1 1014768
05:00−9wsw513797 0.0 1015650
08:00−13sw46927 0.0 101881
11:00−6w410735 0.0 10161094
14:00−5wnw5107433 0.0 10151573
17:00−9wsw358468 0.0 1017101
20:00−12sw359398 0.0 101986
22 january, sat
sat2223:00−12wsw3592100 0.0 101999
02:00−12sw3492100 0.0 101977
05:00−12sw349297 0.0 101875
08:00−13sw349393 0.0 101964
11:00−7wsw2681100 0.0 1018462
14:00−6w3882100 0.1 10171116
17:00−7nw2695100 1.4 1019750
20:00−8nw2696100 2.9 1021718
23 january, sun
sun2323:00−8wnw2696100 1.8 1022685
02:00−8w2695100 3.1 1022531
05:00−8nw2696100 2.9 1022639
08:00−9nnw2696100 6.1 1024727
11:00−9nnw3694100 1.6 1026739
14:00−8n3793100 2.9 1027811
17:00−9n2697100 1.5 1028694
20:00−10n2697100 3.6 1031592
24 january, mon
mon2423:00−11nne2497100 1.4 1032289
02:00−14nw1198100 2.0 103425
05:00−16w2198100 0.3 103616
08:00−17wsw229777 0.3 103723
11:00−11nnw239198 0.0 1036323
14:00−9nnw2388100 0.1 1034567
17:00−14w119971 0.0 10369
20:00−17wsw229851 0.1 103819